"1994/01/01", 6.0, 6.3, 5.4
"1994/01/02", 5.7, 6.1, 5.4
"1994/01/03", 5.8, 6.0, 5.3
"1994/01/04", 5.6, 6.2, 5.3
"1994/01/05", 5.6, 6.0, 4.8
"1994/01/06", 5.4, 5.7, 5.2
"1994/01/07", 5.2, 6.1, 4.8
"1994/01/08", 4.8, 4.9, 4.4
"1994/01/09", 4.8, 5.6, 3.5
"1994/01/10", 5.1, 5.3, 4.7
"1994/01/11", 5.3, 5.4, 5.2
"1994/01/12", 5.3, 5.8, 4.8
"1994/01/13", 5.6, 5.8, 5.3
"1994/01/14", 5.3, 5.6, 5.1
"1994/01/15", 4.9, 5.4, 4.3
"1994/01/16", 5.0, 5.6, 4.2
"1994/01/17", 5.3, 6.4, 4.8
"1994/01/18", 5.8, 6.7, 5.5
"1994/01/19", 5.7, 6.3, 5.3
"1994/01/20", 5.2, 5.5, 4.4
"1994/01/21", 4.9, 5.1, 4.7
"1994/01/22", 4.7, 5.6, 3.7
"1994/01/23", 4.7, 5.5, 4.3
"1994/01/24", 4.4, 4.7, 3.4
"1994/01/25", 4.4, 4.9, 3.7
"1994/01/26", 4.7, 5.7, 4.0
"1994/01/27", 4.8, 5.6, 4.3
"1994/01/28", 4.6, 4.8, 4.3
"1994/01/29", 4.0, 4.3, 3.2
"1994/01/30", 3.6, 4.1, 2.5
"1994/01/31", 3.8, 4.4, 3.3
"1994/02/01", 3.8, 3.9, 3.6
"1994/02/02", 3.6, 4.2, 2.8
"1994/02/03", 3.0, 3.5, 1.6
"1994/02/04", 3.1, 4.2, 2.5
"1994/02/05", 3.4, 4.2, 2.8
"1994/02/06", 3.9, 4.6, 3.3
"1994/02/07", 4.1, 4.8, 3.7
"1994/02/08", 4.5, 4.9, 4.1
"1994/02/09", 5.0, 5.8, 4.6
"1994/02/10", 5.0, 5.8, 4.3
"1994/02/11", 4.5, 5.3, 3.8
"1994/02/12", 3.9, 4.4, 3.0
"1994/02/13", 3.4, 4.3, 1.9
"1994/02/14", 3.5, 4.6, 2.8
"1994/02/15", 3.3, 4.0, 2.5
"1994/02/16", 4.3, 5.4, 3.6
"1994/02/17"," *"," *"," *"
"1994/02/18"," *"," *"," *"
"1994/02/19", 5.3, 6.3, 4.7
"1994/02/20", 5.5, 6.7, 5.0
"1994/02/21", 5.9, 6.9, 5.4
"1994/02/22", 5.2, 6.3, 4.4
"1994/02/23", 4.9, 5.7, 3.8
"1994/02/24", 4.5, 5.5, 3.3
"1994/02/25", 4.8, 5.8, 4.2
"1994/02/26", 5.3, 6.7, 4.3
"1994/02/27", 5.7, 7.1, 5.1
"1994/02/28", 6.1, 7.8, 5.3
"1994/03/01", 6.6, 8.1, 5.6
"1994/03/02", 6.3, 6.8, 5.8
"1994/03/03", 6.2, 6.8, 5.7
"1994/03/04", 6.3, 7.2, 6.0
"1994/03/05", 6.4, 7.3, 6.1
"1994/03/06", 6.5, 7.4, 5.8
"1994/03/07", 6.3, 6.4, 6.1
"1994/03/08", 6.3, 6.8, 6.2
"1994/03/09", 6.7, 7.4, 6.3
"1994/03/10", 6.5, 6.7, 6.2
"1994/03/11", 6.6, 7.6, 6.2
"1994/03/12", 6.8, 7.4, 6.3
"1994/03/13", 6.7, 7.0, 6.6
"1994/03/14", 6.8, 7.0, 6.6
"1994/03/15", 7.0, 7.9, 6.3
"1994/03/16", 7.1, 8.1, 6.4
"1994/03/17", 7.6, 8.3, 6.8
"1994/03/18", 7.6, 8.4, 7.2
"1994/03/19", 7.9, 9.1, 7.2
"1994/03/20", 7.8, 8.3, 7.6
"1994/03/21", 8.1, 9.3, 7.2
"1994/03/22", 7.9, 8.7, 7.3
"1994/03/23", 7.9, 8.1, 7.6
"1994/03/24", 8.3, 9.1, 7.9
"1994/03/25", 9.1,10.4, 8.3
"1994/03/26", 9.1,10.0, 8.5
"1994/03/27", 9.5,10.9, 8.6
"1994/03/28", 9.7,10.6, 8.9
"1994/03/29",10.3,11.4, 9.4
"1994/03/30",10.3,12.1, 9.8
"1994/03/31",11.0,12.7, 9.8
"1994/04/01",11.7,13.6,10.8
"1994/04/02",12.1,12.7,11.3
"1994/04/03",11.7,12.9,10.8
"1994/04/04",12.1,13.3,11.4
"1994/04/05",12.2,14.1,11.6
"1994/04/06",13.0,15.6,11.6
"1994/04/07",14.4,16.5,12.8
"1994/04/08"," *"," *"," *"
"1994/04/09",13.5,14.8,12.6
"1994/04/10",13.3,14.9,12.3
"1994/04/11",13.0,13.7,12.4
"1994/04/12",13.7,15.0,12.7
"1994/04/13"," *"," *"," *"
"1994/04/14",13.3,14.1,12.9
"1994/04/15",13.9,15.4,13.1
"1994/04/16",14.9,17.0,14.0
"1994/04/17",14.8,15.9,14.1
"1994/04/18",15.1,15.7,14.8
"1994/04/19",15.6,17.6,14.8
"1994/04/20",15.2,15.9,14.9
"1994/04/21"," *"," *"," *"
"1994/04/22",16.1,17.4,15.4
"1994/04/23",16.3,17.0,15.7
"1994/04/24",16.4,16.6,16.1
"1994/04/25",17.0,18.1,16.2
"1994/04/26",17.1,17.9,16.7
"1994/04/27",17.0,17.7,16.5
"1994/04/28",16.9,17.0,16.8
"1994/04/29"," *"," *"," *"
"1994/04/30",17.5,18.8,17.0
"1994/05/01",16.9,17.2,16.4
"1994/05/02",16.2,16.4,15.9
"1994/05/03"," *"," *"," *"
"1994/05/04",16.0,16.5,15.3
"1994/05/05",17.0,18.0,16.4
"1994/05/06",17.5,18.8,16.6
"1994/05/07",17.6,19.0,16.9
"1994/05/08",18.1,19.3,17.5
"1994/05/09",18.4,19.7,17.9
"1994/05/10",18.6,19.5,17.5
"1994/05/11"," *"," *"," *"
"1994/05/12",18.5,19.0,17.9
"1994/05/13",18.5,19.9,17.4
"1994/05/14",18.9,20.6,18.2
"1994/05/15",18.7,18.8,18.5
"1994/05/16",19.3,20.5,18.6
"1994/05/17"," *"," *"," *"
"1994/05/18"," *"," *"," *"
"1994/05/19",19.1,19.8,18.5
"1994/05/20",18.8,19.8,17.5
"1994/05/21",19.1,20.8,17.8
"1994/05/22",19.3,20.5,19.0
"1994/05/23",20.1,23.3,18.9
"1994/05/24",20.4,22.5,19.5
"1994/05/25",21.0,22.4,20.2
"1994/05/26",21.2,21.8,20.5
"1994/05/27",21.1,22.1,20.5
"1994/05/28",21.1,21.7,20.7
"1994/05/29",21.5,23.6,20.4
"1994/05/30",21.8,23.4,21.3
"1994/05/31",22.3,23.7,21.7
"1994/06/01",22.0,22.3,21.8
"1994/06/02",22.1,23.6,21.1
"1994/06/03",22.7,24.5,21.2
"1994/06/04",22.4,23.1,22.0
"1994/06/05",23.3,24.7,22.7
"1994/06/06",22.3,23.0,21.7
"1994/06/07",21.5,21.8,21.3
"1994/06/08",21.7,22.8,20.6
"1994/06/09",21.5,21.6,21.4
"1994/06/10",22.3,24.5,21.2
"1994/06/11",22.7,24.5,22.3
"1994/06/12",22.9,23.3,22.4
"1994/06/13",23.1,23.9,22.6
"1994/06/14",22.8,23.3,22.6
"1994/06/15",23.5,25.1,22.3
"1994/06/16",23.8,25.5,23.2
"1994/06/17",24.3,26.5,23.1
"1994/06/18",24.0,24.4,23.6
"1994/06/19",22.8,24.1,21.0
"1994/06/20",20.6,21.2,19.0
"1994/06/21",21.2,22.1,20.4
"1994/06/22",21.6,23.3,20.9
"1994/06/23",21.6,22.1,21.2
"1994/06/24",22.3,23.3,21.5
"1994/06/25",21.9,22.8,21.6
"1994/06/26",21.8,22.3,21.4
"1994/06/27"," *"," *"," *"
"1994/06/28",22.9,24.5,21.9
"1994/06/29",21.8,22.1,21.5
"1994/06/30",22.4,23.7,21.7
"1994/07/01",22.2,22.5,21.8
"1994/07/02"," *"," *"," *"
"1994/07/03"," *"," *"," *"
"1994/07/04"," *"," *"," *"
"1994/07/05",24.2,27.7,22.8
"1994/07/06",25.3,27.1,23.9
"1994/07/07",25.1,25.4,24.9
"1994/07/08",25.3,26.5,24.3
"1994/07/09",25.6,26.2,25.4
"1994/07/10",25.4,26.0,25.1
"1994/07/11",25.5,27.3,25.0
"1994/07/12",26.0,26.8,25.3
"1994/07/13",26.3,27.5,25.5
"1994/07/14",26.4,28.0,25.6
"1994/07/15",27.1,29.7,26.0
"1994/07/16",27.9,29.5,26.6
"1994/07/17",28.3,30.3,27.2
"1994/07/18",27.3,28.3,26.6
"1994/07/19",27.1,27.6,26.8
"1994/07/20",27.5,29.6,26.8
"1994/07/21",27.8,30.0,26.9
"1994/07/22",28.2,29.6,27.3
"1994/07/23",28.5,30.4,27.5
"1994/07/24",28.8,30.3,27.9
"1994/07/25",29.3,30.5,28.5
"1994/07/26",29.3,30.1,28.7
"1994/07/27",29.4,30.9,28.9
"1994/07/28",29.2,29.8,28.9
"1994/07/29",28.4,28.9,28.0
"1994/07/30",28.7,30.3,27.8
"1994/07/31",28.7,29.5,28.2
"1994/08/01",29.7,31.6,28.4
"1994/08/02",30.2,32.0,29.3
"1994/08/03",30.5,32.5,29.5
"1994/08/04",30.9,32.4,30.0
"1994/08/05",30.5,31.7,30.1
"1994/08/06",30.2,31.6,29.5
"1994/08/07",30.8,33.1,29.8
"1994/08/08",30.9,32.2,30.4
"1994/08/09",30.8,31.5,30.4
"1994/08/10",30.5,31.4,30.0
"1994/08/11",30.3,31.0,29.8
"1994/08/12",30.3,30.8,29.5
"1994/08/13",30.2,31.0,29.6
"1994/08/14",29.8,30.3,29.4
"1994/08/15",29.7,30.6,29.1
"1994/08/16",30.2,32.0,29.3
"1994/08/17",30.3,32.0,29.3
"1994/08/18",30.2,31.3,29.4
"1994/08/19",29.9,30.4,29.2
"1994/08/20",29.2,29.8,28.8
"1994/08/21",27.7,28.8,25.6
"1994/08/22",26.6,27.0,26.3
"1994/08/23",26.6,27.0,26.3
"1994/08/24",26.5,27.0,26.1
"1994/08/25",26.8,28.1,26.0
"1994/08/26",27.5,29.4,26.5
"1994/08/27",27.2,27.5,26.9
"1994/08/28",28.0,30.1,27.3
"1994/08/29",28.7,30.5,27.9
"1994/08/30",28.8,30.8,28.0
"1994/08/31",28.5,29.0,28.0
"1994/09/01",28.7,30.8,28.3
"1994/09/02",28.5,29.4,27.8
"1994/09/03",28.5,29.4,27.9
"1994/09/04",28.3,30.0,27.4
"1994/09/05",28.3,29.6,27.3
"1994/09/06",28.2,28.8,27.8
"1994/09/07",28.2,28.9,27.8
"1994/09/08",28.2,29.0,27.8
"1994/09/09",28.4,29.9,27.2
"1994/09/10",28.1,28.5,27.6
"1994/09/11",28.3,28.8,27.9
"1994/09/12",27.6,28.1,27.0
"1994/09/13",26.5,27.3,25.5
"1994/09/14",25.0,25.5,24.6
"1994/09/15",24.3,24.7,23.7
"1994/09/16",24.5,25.3,24.0
"1994/09/17",24.6,24.8,24.4
"1994/09/18",24.6,25.0,24.3
"1994/09/19"," *"," *"," *"
"1994/09/20",25.2,26.7,24.3
"1994/09/21",25.4,25.9,25.0
"1994/09/22",24.7,25.0,24.4
"1994/09/23",24.3,25.0,23.3
"1994/09/24",23.9,24.3,23.6
"1994/09/25",23.6,24.1,23.4
"1994/09/26",23.4,23.6,23.1
"1994/09/27",22.8,23.1,22.5
"1994/09/28",22.4,22.5,22.0
"1994/09/29",22.1,22.5,21.6
"1994/09/30",23.0,24.0,22.4
"1994/10/01",23.4,23.8,23.2
"1994/10/02",23.0,23.2,22.8
"1994/10/03",22.7,23.0,22.4
"1994/10/04",22.3,22.6,21.9
"1994/10/05",22.3,22.8,21.5
"1994/10/06",22.7,23.5,22.3
"1994/10/07",22.6,23.3,22.1
"1994/10/08",22.3,22.5,22.1
"1994/10/09",22.0,22.3,21.7
"1994/10/10",21.8,22.0,21.6
"1994/10/11",21.6,21.8,21.3
"1994/10/12",21.4,21.9,21.1
"1994/10/13",21.9,22.5,21.5
"1994/10/14",22.1,22.6,21.8
"1994/10/15",21.8,22.5,21.2
"1994/10/16",21.7,22.2,21.1
"1994/10/17",21.4,21.9,21.1
"1994/10/18"," *"," *"," *"
"1994/10/19",20.5,21.0,19.8
"1994/10/20",20.6,21.4,20.4
"1994/10/21",19.4,20.4,18.7
"1994/10/22",18.8,19.0,18.0
"1994/10/23",19.0,19.9,18.5
"1994/10/24",18.3,18.9,17.7
"1994/10/25",17.5,17.7,17.2
"1994/10/26",17.1,17.2,17.0
"1994/10/27",17.1,17.5,16.9
"1994/10/28",17.3,17.4,17.0
"1994/10/29",17.5,17.6,17.4
"1994/10/30",17.4,17.6,17.3
"1994/10/31",17.3,17.5,17.0
"1994/11/01",16.5,16.9,16.2
"1994/11/02",16.3,16.8,15.8
"1994/11/03",16.1,16.5,15.9
"1994/11/04",16.0,17.2,14.8
"1994/11/05",16.0,16.4,15.4
"1994/11/06",15.8,16.0,15.4
"1994/11/07",15.6,15.7,15.3
"1994/11/08",14.5,15.2,14.0
"1994/11/09",14.3,15.8,12.2
"1994/11/10",15.0,15.7,14.4
"1994/11/11",15.4,16.4,14.9
"1994/11/12",15.3,16.0,14.8
"1994/11/13",15.5,16.5,15.0
"1994/11/14",14.7,15.1,14.1
"1994/11/15",13.6,14.1,12.9
"1994/11/16",12.7,13.4,12.3
"1994/11/17",12.6,13.1,11.8
"1994/11/18",13.2,13.8,12.6
"1994/11/19",13.5,14.3,13.1
"1994/11/20",13.7,13.9,13.5
"1994/11/21",13.7,14.1,13.6
"1994/11/22",13.3,13.6,12.9
"1994/11/23",12.7,12.9,12.3
"1994/11/24",12.0,12.2,10.7
"1994/11/25",11.7,12.1,11.0
"1994/11/26",11.6,11.9,11.2
"1994/11/27",11.3,11.7,10.7
"1994/11/28",11.1,11.5,10.3
"1994/11/29",11.2,11.9,10.6
"1994/11/30",11.4,11.8,11.1
"1994/12/01"," *"," *"," *"
"1994/12/02"," *"," *"," *"
"1994/12/03",11.4,11.8,11.1
"1994/12/04",11.2,11.4,10.8
"1994/12/05",10.7,10.9,10.1
"1994/12/06", 9.9,10.6, 8.9
"1994/12/07", 9.8,10.1, 8.9
"1994/12/08", 9.8,10.3, 9.1
"1994/12/09", 9.9,10.1, 9.6
"1994/12/10", 9.0, 9.6, 8.3
"1994/12/11", 8.4, 8.9, 8.1
"1994/12/12", 8.5, 9.1, 8.1
"1994/12/13", 9.1, 9.4, 8.9
"1994/12/14", 9.0, 9.3, 8.4
"1994/12/15", 8.8, 9.1, 8.5
"1994/12/16", 7.9, 8.7, 6.3
"1994/12/17", 6.9, 7.3, 6.4
"1994/12/18", 6.8, 7.4, 6.1
"1994/12/19", 6.3, 6.8, 5.3
"1994/12/20", 5.6, 6.2, 4.9
"1994/12/21", 6.0, 6.4, 5.6
"1994/12/22", 6.2, 6.6, 5.7
"1994/12/23", 6.2, 6.3, 5.8
"1994/12/24", 6.3, 6.8, 5.9
"1994/12/25", 6.4, 6.8, 6.1
"1994/12/26", 6.4, 6.6, 6.2
"1994/12/27", 6.5, 6.8, 6.2
"1994/12/28", 6.8, 7.0, 6.7
"1994/12/29", 6.8, 7.2, 6.6
"1994/12/30", 6.7, 6.8, 6.3
"1994/12/31", 6.4, 6.6, 6.2
